Вернуться в каталог

STARLINK-36987

АктивенСвязьVLEO
NORAD 68321·PAYLOAD·🇺🇸 United States

Запущен Mar 22, 2026 с Cape Canaveral Space Force Station

Loading…

Ближайшие Пролёты (ближайшие 24 часа)

TLE

СвежийSource: CelesTrak SupGP

Эпоха: Sep 15, 2026, 03:16 UTC

1 68321C 26059A   26258.13659722 -.00047953  00000+0 -14168-2 0  2589
2 68321  53.1589 186.6605 0001331  84.5505 286.4239 15.34412786    16

Отслеживайте STARLINK-36987 в реальном времени с AllMySat

Download on the App Store